Weather History for Agadir Al Massira, Morocco

Change the Weather History Date:

Monday, January 27, 2014

  Actual Average Record
Temperature  
Mean Temperature 56 °F -  
Max Temperature 69 °F - - ()
Min Temperature 42 °F - - ()
Degree Days  
Heating Degree Days 10    
Growing Degree Days 6 (Base 50)    
Moisture  
Dew Point 48 °F    
Average Humidity 72    
Maximum Humidity 94    
Minimum Humidity 31    
Precipitation  
Precipitation 0.00 in - - ()
Sea Level Pressure  
Sea Level Pressure 30.16 in    
Wind  
Wind Speed 3 mph ()    
Max Wind Speed 12 mph    
Max Gust Speed -    
Visibility 6.0 miles    
Events      
T = Trace of Precipitation, MM = Missing Value Source: Averaged Metar Reports

Daily Weather History Graph

Daily Weather History Graph

Search for Another Location

Airport:

Trip Planner

Search our weather history database for the weather conditions in past years. The results will help you decide how hot, cold, wet, or windy it might be!

Date:

Astronomy

Jan. 27, 2014 Rise Set
Actual Time 7:31 AM WET 6:09 PM WET
Civil Twilight 7:05 AM WET 6:35 PM WET
Nautical Twilight 6:36 AM WET 7:04 PM WET
Astronomical Twilight 6:08 AM WET 7:32 PM WET
Moon 3:55 AM WET 2:45 PM WET
Length of Visible Light 11h 29m
Length of Day
10h 38m
Waning Crescent, 16% of the Moon is Illuminated
Jan 27
Waning Crescent
Jan 30
New
Feb 6
First Quarter
Feb 14
Full
Feb 22
Last Quarter

Hourly Weather History & Observations

Time (WET) Temp. Windchill Dew Point Humidity Pressure Visibility Wind Dir Wind Speed Gust Speed Precip Events Conditions
12:00 AM 50 °F - 48 °F 89% 30.28 in 6 mi Calm Calm - -  
12:00 AM 50.0 °F - 48.2 °F 94% 30.27 in - Calm Calm - N/A   Clear
3:00 AM 46 °F - 44 °F 91% 30.25 in 6 mi Calm Calm - -  
3:00 AM 46.4 °F - 44.6 °F 93% 30.24 in - Calm Calm - N/A   Clear
4:00 AM 46.4 °F - 44.6 °F 93% 30.21 in - Calm Calm - N/A   Clear
5:00 AM 46.4 °F 41.9 °F 44.6 °F 93% 30.18 in - East 9.2 mph - N/A   Clear
6:00 AM 50 °F - 46 °F 81% 30.19 in 6 mi East 6.9 mph - -  
6:00 AM 50.0 °F - 46.4 °F 87% 30.18 in - East 6.9 mph - N/A   Clear
7:00 AM 46.4 °F 44.3 °F 42.8 °F 87% 30.18 in - ENE 4.6 mph - N/A   Clear
8:00 AM 46.4 °F - 42.8 °F 87% 30.18 in - Calm Calm - N/A   Clear
9:00 AM 54 °F - 48 °F 74% 30.21 in 6 mi Calm Calm - -  
9:00 AM 53.6 °F - 48.2 °F 82% 30.18 in - Calm Calm - N/A   Clear
10:00 AM 62.6 °F - 48.2 °F 59% 30.18 in - Calm Calm - N/A   Clear
11:00 AM 66.2 °F - 46.4 °F 49% 30.18 in - Calm Calm - N/A   Clear
12:00 PM 69 °F - 45 °F 31% 30.18 in 6 mi SW 1.2 mph - -  
12:00 PM 68.0 °F - 44.6 °F 43% 30.18 in - Variable 1.2 mph - N/A   Clear
1:00 PM 69.8 °F - 48.2 °F 46% 30.15 in - WSW 9.2 mph - N/A   Clear
2:00 PM 68.0 °F - 48.2 °F 49% 30.12 in - SW 9.2 mph - N/A   Clear
3:00 PM 69 °F - 49 °F 37% 30.10 in 6 mi WSW 9.2 mph - -  
3:00 PM 68.0 °F - 48.2 °F 49% 30.09 in - WSW 9.2 mph - N/A   Clear
4:00 PM 68.0 °F - 48.2 °F 49% 30.09 in - WSW 11.5 mph - N/A   Clear
5:00 PM 64.4 °F - 51.8 °F 64% 30.09 in - WSW 10.4 mph - N/A   Clear
6:00 PM 60 °F - 53 °F 70% 30.10 in 6 mi SW 6.9 mph - -  
6:00 PM 60.8 °F - 53.6 °F 77% 30.09 in - SW 6.9 mph - N/A   Clear
7:00 PM 57.2 °F - 51.8 °F 82% 30.09 in - Calm Calm - N/A   Clear
9:00 PM 53.6 °F - 50.0 °F 88% 30.12 in - Calm Calm - N/A   Clear
10:00 PM 53.6 °F - 50.0 °F 88% 30.12 in - Calm Calm - N/A   Clear
11:00 PM 50.0 °F - 48.2 °F 94% 30.12 in - Calm Calm - N/A   Clear